Showing default

ESSA 4 (TOS-B), 2657

Orbit data source: Space-Track

ESSA 4 (TOS-B), 2657 is a payload satellite owned by ESSA (US) in SSO that was launched on Thu, 26 Jan 1967 UTC via a THOR DELTA E launch vehicle from the Air Force Western Test Range (AFWTR). Payload-class satellites include a variety of spacecraft equipped with specific instruments for various scientific and technological missions. These include communications satellites like Starlink; space stations such as the ISS; scientific satellites like the Hubble; Earth observation satellites from companies like Planet Labs, Umbra, and HawkEye 360; GPS; miniature CubeSats for education and research; and military/defense satellites.

Loading next visibility...
Identifier
2657, 1967-006A
Orbit
SSO
Country
Flag of USUS
Related business
Manufacturer
RCA/East Windsor
Mission
Non-operational spacecraft
Bus & Motor
TIROS I, Unknown motor
Mass
132 kg wet, 132 kg dry
Launch date (UTC)
1967-01-26 (60 years ago)
Launch vehicle
THOR DELTA E
Launch site
Air Force Western Test Range (AFWTR)
Object type
Payload
Rocket body
Debris
Shape & HBR
CYL, 0.6 m
Radar Cross Section
Medium (>0.1 m² and <1 m²)

Expand to show TLE details & history
Last TLE update: 11 hours ago

TLE from 11 hours ago
0 ESSA 4 (TOS-B)
1 02657U 67006A   26238.53359752 -.00000032  00000-0  83065-4 0  9991
2 02657 102.0800  80.4435 0073109 141.4801 247.5745 12.69892261761471
Epoch: 2026-08-26T12:48Z
TLE epoch observation values (Epoch: 2026-08-26T12:48:22.825Z)
Latitude
27.64274°
Longitude
-92.84062°
Altitude
1,407.483 km
Speed
7.149 km/s
True Right ascension
04h 56m 09s
True Declination
27° 30' 48"
Sunlit
Object was in daylight at epoch
Visualization orbit readout
Latitude
Unknown
Longitude
Unknown
Altitude
Unknown
Speed
Unknown
Apparent Right ascension
Unknown
Apparent Declination
Unknown
Sunlit
N/A
Visualization observer readout
Local Sidereal Time
14:57:27
Azimuth
Unknown
Elevation
Unknown
Doppler factor
Unknown
Orbital elements
Apogee altitude
1,436.638 km
Perigee altitude
1,323.201 km
Semi-major axis
7,758.056 km
Eccentricity
0.00731
Inclination
102.08°
RAAN
80.4435°
Arg. of periapsis
141.4801°
True anomaly
246.8028°
Mean anomaly
247.5745°
Eccentric anomaly
247.18838°
Mean motion
3.17624 °/min
Orbital period
113.34 mins
BSTAR
0.000083065
Loading maneuver chart data...
Computing Atmospheric mass density...
Loading historical data...
Loading historical data...
Loading historical data...
Loading historical data...
Loading historical data...
Loading historical data...
Loading historical data...
Other satellites on launch #6 in the year 1967 (1967-01-26 UTC)

Documentation

Showing up to 5 results
|